• In Latvia
  • List of Countries
  • For 7 days
  • Water Temperature
  • Satellite Maps
  • Weather Map
  • Weather Widgets
  • user-avatar
    Login

    Hourly Weather Maloe Fominskoe

    Today, 22 July, Sunday

    Time Temperature Precipitation Wind Pressure Humidity
    00:00 +19°C° 0 mm 3 mps 746 mmHg 94%
    01:00 +18°C° 0 mm 3 mps 746 mmHg 95%
    02:00 +18°C° 0 mm 2 mps 746 mmHg 98%
    03:00 +18°C° 0 mm 2 mps 746 mmHg 97%
    04:00 +19°C° 0 mm 3 mps 746 mmHg 95%
    05:00 +19°C° 0 mm 3 mps 746 mmHg 94%
    06:00 +20°C° 0 mm 3 mps 747 mmHg 89%
    07:00 +21°C° 0 mm 4 mps 747 mmHg 84%
    08:00 +22°C° 0 mm 4 mps 747 mmHg 78%
    09:00 +23°C° 0 mm 4 mps 747 mmHg 73%
    10:00 +25°C° 0 mm 4 mps 747 mmHg 68%
    11:00 +26°C° 0 mm 4 mps 747 mmHg 62%
    12:00 +27°C° 0 mm 4 mps 747 mmHg 61%
    13:00 +27°C° 0 mm 4 mps 747 mmHg 60%
    14:00 +27°C° 0 mm 4 mps 746 mmHg 58%
    15:00 +27°C° 0.2 mm 4 mps 746 mmHg 62%
    16:00 +26°C° 0.2 mm 4 mps 746 mmHg 65%
    17:00 +26°C° 0.2 mm 3 mps 746 mmHg 68%
    18:00 +24°C° 0.1 mm 3 mps 746 mmHg 74%
    19:00 +22°C° 0.1 mm 3 mps 747 mmHg 80%
    20:00 +21°C° 0.1 mm 2 mps 747 mmHg 86%
    21:00 +20°C° 0 mm 2 mps 747 mmHg 88%
    22:00 +19°C° 0 mm 2 mps 747 mmHg 91%
    23:00 +18°C° 0 mm 2 mps 747 mmHg 93%

    Tomorrow, 23 July, Monday

    Time Temperature Precipitation Wind Pressure Humidity
    00:00 +18°C° 0 mm 3 mps 747 mmHg 94%
    01:00 +18°C° 0 mm 3 mps 748 mmHg 95%
    02:00 +17°C° 0 mm 3 mps 748 mmHg 95%
    03:00 +18°C° 0 mm 3 mps 748 mmHg 95%
    04:00 +18°C° 0 mm 3 mps 748 mmHg 94%
    05:00 +18°C° 0 mm 3 mps 748 mmHg 93%
    06:00 +19°C° 0 mm 3 mps 748 mmHg 88%
    07:00 +20°C° 0 mm 3 mps 748 mmHg 82%
    08:00 +22°C° 0 mm 3 mps 748 mmHg 77%
    09:00 +22°C° 0.1 mm 4 mps 748 mmHg 72%
    10:00 +23°C° 0.1 mm 4 mps 748 mmHg 68%
    11:00 +25°C° 0.1 mm 4 mps 748 mmHg 63%
    12:00 +26°C° 0.1 mm 4 mps 748 mmHg 60%
    13:00 +26°C° 0.1 mm 4 mps 748 mmHg 57%
    14:00 +27°C° 0.1 mm 4 mps 748 mmHg 55%
    15:00 +26°C° 0 mm 4 mps 748 mmHg 56%
    16:00 +26°C° 0 mm 4 mps 748 mmHg 57%
    17:00 +25°C° 0 mm 4 mps 748 mmHg 57%
    18:00 +24°C° 0 mm 3 mps 748 mmHg 63%
    19:00 +21°C° 0 mm 3 mps 748 mmHg 69%
    20:00 +19°C° 0 mm 2 mps 749 mmHg 76%
    21:00 +18°C° 0 mm 2 mps 749 mmHg 79%
    22:00 +17°C° 0 mm 2 mps 749 mmHg 82%
    23:00 +16°C° 0 mm 2 mps 749 mmHg 85%

    Day after tomorrow, 24 July, Tuesday

    Time Temperature Precipitation Wind Pressure Humidity
    00:00 +16°C° 0 mm 2 mps 749 mmHg 87%
    01:00 +14°C° 0 mm 3 mps 749 mmHg 88%
    02:00 +14°C° 0 mm 3 mps 749 mmHg 90%
    03:00 +14°C° 0 mm 3 mps 749 mmHg 89%
    04:00 +16°C° 0 mm 3 mps 750 mmHg 87%
    05:00 +15°C° 0 mm 4 mps 750 mmHg 86%
    06:00 +17°C° 0 mm 4 mps 750 mmHg 85%
    07:00 +17°C° 0 mm 4 mps 750 mmHg 84%
    08:00 +18°C° 0 mm 4 mps 750 mmHg 83%
    09:00 +19°C° 0 mm 4 mps 750 mmHg 80%
    10:00 +20°C° 0 mm 4 mps 750 mmHg 76%
    11:00 +21°C° 0 mm 4 mps 750 mmHg 73%
    12:00 +21°C° 0.1 mm 4 mps 750 mmHg 74%
    13:00 +21°C° 0.1 mm 4 mps 750 mmHg 76%
    14:00 +21°C° 0.1 mm 4 mps 750 mmHg 77%
    15:00 +21°C° 0.1 mm 4 mps 750 mmHg 78%
    16:00 +21°C° 0.1 mm 3 mps 750 mmHg 79%
    17:00 +22°C° 0.1 mm 3 mps 750 mmHg 80%
    18:00 +21°C° 0.1 mm 3 mps 750 mmHg 84%
    19:00 +20°C° 0.1 mm 3 mps 750 mmHg 88%
    20:00 +20°C° 0.1 mm 3 mps 750 mmHg 91%
    21:00 +19°C° 0 mm 3 mps 750 mmHg 92%
    22:00 +19°C° 0 mm 3 mps 751 mmHg 92%
    23:00 +19°C° 0 mm 3 mps 751 mmHg 93%

    25 July, Wednesday

    Time Temperature Precipitation Wind Pressure Humidity
    00:00 +18°C° 0 mm 3 mps 751 mmHg 93%
    01:00 +18°C° 0 mm 3 mps 751 mmHg 94%
    02:00 +17°C° 0 mm 3 mps 751 mmHg 95%
    03:00 +18°C° 0.1 mm 3 mps 751 mmHg 94%
    04:00 +18°C° 0.1 mm 3 mps 751 mmHg 94%
    05:00 +18°C° 0.1 mm 3 mps 751 mmHg 93%
    06:00 +19°C° 0 mm 3 mps 752 mmHg 91%
    07:00 +20°C° 0 mm 3 mps 752 mmHg 88%
    08:00 +21°C° 0 mm 3 mps 752 mmHg 86%
    09:00 +24°C° 0 mm 3 mps 752 mmHg 77%
    10:00 +26°C° 0 mm 3 mps 752 mmHg 69%
    11:00 +28°C° 0 mm 3 mps 752 mmHg 61%
    12:00 +28°C° 0.1 mm 3 mps 752 mmHg 57%
    13:00 +29°C° 0.1 mm 3 mps 752 mmHg 54%
    14:00 +30°C° 0.1 mm 4 mps 752 mmHg 50%
    15:00 +30°C° 0 mm 4 mps 752 mmHg 51%
    16:00 +29°C° 0 mm 3 mps 752 mmHg 52%
    17:00 +29°C° 0 mm 3 mps 752 mmHg 52%
    18:00 +27°C° 0 mm 3 mps 752 mmHg 59%
    19:00 +25°C° 0 mm 3 mps 752 mmHg 67%
    20:00 +22°C° 0 mm 3 mps 752 mmHg 74%
    21:00 +21°C° 0 mm 3 mps 753 mmHg 77%
    22:00 +20°C° 0 mm 3 mps 753 mmHg 80%
    23:00 +19°C° 0 mm 2 mps 753 mmHg 83%

    26 July, Thursday

    Time Temperature Precipitation Wind Pressure Humidity
    00:00 +19°C° 0 mm 2 mps 753 mmHg 85%
    01:00 +18°C° 0 mm 2 mps 753 mmHg 87%
    02:00 +18°C° 0 mm 2 mps 753 mmHg 89%
    03:00 +18°C° 0 mm 2 mps 754 mmHg 87%
    04:00 +18°C° 0 mm 2 mps 754 mmHg 85%
    05:00 +19°C° 0 mm 2 mps 754 mmHg 82%
    06:00 +21°C° 0 mm 2 mps 754 mmHg 76%
    07:00 +24°C° 0 mm 2 mps 754 mmHg 69%
    08:00 +26°C° 0 mm 3 mps 754 mmHg 62%
    09:00 +27°C° 0 mm 3 mps 755 mmHg 56%
    10:00 +29°C° 0 mm 3 mps 755 mmHg 50%
    11:00 +30°C° 0 mm 4 mps 755 mmHg 43%
    12:00 +32°C° 0 mm 4 mps 755 mmHg 42%
    13:00 +32°C° 0 mm 4 mps 754 mmHg 41%
    14:00 +33°C° 0 mm 3 mps 754 mmHg 39%
    15:00 +31°C° 0 mm 3 mps 754 mmHg 42%
    16:00 +31°C° 0 mm 3 mps 754 mmHg 45%
    17:00 +30°C° 0 mm 3 mps 754 mmHg 48%
    18:00 +28°C° 0 mm 3 mps 754 mmHg 56%
    19:00 +26°C° 0 mm 3 mps 755 mmHg 64%
    20:00 +24°C° 0 mm 2 mps 755 mmHg 72%
    21:00 +23°C° 0 mm 2 mps 755 mmHg 75%
    22:00 +21°C° 0 mm 2 mps 755 mmHg 77%
    23:00 +21°C° 0 mm 2 mps 756 mmHg 80%

    27 July, Friday

    Time Temperature Precipitation Wind Pressure Humidity
    00:00 +21°C° 0 mm 2 mps 756 mmHg 80%
    01:00 +20°C° 0 mm 2 mps 756 mmHg 80%
    02:00 +20°C° 0 mm 2 mps 756 mmHg 81%
    03:00 +20°C° 0.1 mm 2 mps 756 mmHg 81%
    04:00 +21°C° 0.1 mm 2 mps 756 mmHg 82%
    05:00 +21°C° 0.1 mm 2 mps 756 mmHg 83%
    06:00 +23°C° 0 mm 2 mps 756 mmHg 77%
    07:00 +25°C° 0 mm 2 mps 757 mmHg 71%
    08:00 +27°C° 0 mm 2 mps 757 mmHg 65%
    09:00 +28°C° 0 mm 3 mps 757 mmHg 58%
    10:00 +30°C° 0 mm 3 mps 756 mmHg 52%
    11:00 +31°C° 0 mm 3 mps 756 mmHg 46%
    12:00 +31°C° 0 mm 3 mps 756 mmHg 45%
    13:00 +31°C° 0 mm 3 mps 756 mmHg 44%
    14:00 +31°C° 0 mm 3 mps 756 mmHg 43%
    15:00 +31°C° 0 mm 3 mps 756 mmHg 45%
    16:00 +30°C° 0 mm 3 mps 756 mmHg 47%
    17:00 +30°C° 0 mm 2 mps 756 mmHg 50%
    18:00 +28°C° 0 mm 2 mps 756 mmHg 57%
    19:00 +26°C° 0 mm 2 mps 756 mmHg 64%
    20:00 +24°C° 0 mm 2 mps 756 mmHg 71%
    21:00 +23°C° 0 mm 2 mps 757 mmHg 73%
    22:00 +23°C° 0 mm 2 mps 757 mmHg 75%
    23:00 +21°C° 0 mm 2 mps 757 mmHg 77%
    Show more